Presure
126 116 109 117 117 147 126 105 104 92 128 182 154 111 120 156 114 163 162 164 144 128 121 114 157 172 124 109 114 193 125 134 175 215 168 158 126 157 229 131 133 203 238
124 113 134 97 126 126 111 114 107 102 174 164 158 120 130 125 125 121 112 182 123 133 116 126 111 129 178 124 118 133 124 165 230 124 120 127 141 184 131 213 206 234 244
117 134 143 140 106 111 121 176 164 140 105 152 181 127 148 127 196 195 184 162 135 126 174 124 130 150 149 170 136 121 226 269 176 123 125 199 136 132 227 205 220 242 231
132 130 121 109 172 130 169 131 129 127 158 152 142 144 148 157 123 121 126 127 129 193 173 171 158 181 173 162 174 123 205 143 125 234 159 133 192 234 246 223 238 244 233
133 141 142 123 103 121 121 113 110 116 112 113 120 124 130 123 159 125 130 158 145 121 133 163 134 88 143 122 201 197 124 130 201 139 139 220 228 221 232 251 218 242 235
110 134 142 112 153 116 96 109 113 117 197 118 150 159 187 118 133 130 152 147 124 122 118 130 126 122 155 210 144 136 233 237 135 209 235 235 218 221 255 223 227 239 228
139 121 142 117 144 105 112 109 132 175 117 127 122 130 125 178 124 119 133 121 118 132 146 124 123 202 209 134 195 225 131 228 191 232 220 220 212 215 218 208 212 216 220
132 102 126 109 108 107 105 109 110 115 123 117 144 195 192 164 119 129 119 142 120 128 124 172 206 217 216 166 182 133 215 180 228 231 229 165 206 220 216 203 195 199 204
101 109 202 210 202 120 96 121 150 176 151 174 124 125 141 159 205 189 180 121 126 132 202 213 217 202 208 231 134 213 217 233 232 212 218 210 207 210 203 202 201 201 196
134 124 117 100 223 96 126 110 116 94 125 97 156 127 196 199 201 209 115 130 191 208 215 202 215 213 200 235 135 220 210 233 224 219 214 219 217 216 195 196 196 204 201
160 102 127 173 117 116 191 127 125 193 190 199 129 125 182 131 118 129 197 202 207 218 143 204 216 224 165 156 205 202 218 206 209 203 195 209 197 216 185 172 190 190 191
173 162 206 150 189 191 126 171 125 132 133 129 132 216 201 198 193 194 210 200 209 174 216 210 243 133 226 211 211 218 206 199 200 196 195 188 193 206 202 183 191 191 192
127 124 127 211 126 128 134 135 206 195 188 193 201 198 201 200 200 217 203 203 198 211 233 134 135 232 182 217 213 217 220 203 193 192 187 191 193 187 188 184 184 184 187
202 183 204 128 129 188 209 197 217 210 193 196 221 197 201 204 198 186 197 242 239 133 134 236 234 233 245 236 233 230 194 192 190 196 185 194 186 190 189 189 192 190 189
216 216 118 120 128 123 124 151 191 199 210 198 195 200 200 210 199 242 238 221 145 173 228 234 214 230 215 212 192 200 195 193 199 201 200 198 190 187 189 190 193 194 199
116 120 123 120 119 172 212 211 210 201 198 210 200 196 202 205 229 171 193 167 230 238 215 240 223 216 215 201 193 201 195 208 203 196 202 198 193 197 192 183 194 188 194
119 115 120 127 214 224 220 207 205 192 199 202 198 204 228 230 213 248 194 232 221 227 223 219 213 204 211 207 204 196 204 202 196 195 200 195 194 192 190 189 190 191 187
118 193 216 209 207 203 204 208 205 198 204 215 247 227 234 148 150 229 218 221 222 215 208 211 207 215 204 203 201 200 199 198 198 202 187 190 194 196 192 194 194 195 186
147 192 206 204 208 216 218 214 221 231 222 225 230 190 189 226 217 220 222 216 214 205 202 200 195 197 201 201 202 202 182 188 195 187 192 194 195 195 194 200 194 197 194
215 214 215 214 216 217 222 220 218 227 223 216 225 229 222 225 223 213 207 202 199 199 200 200 202 203 202 201 206 205 203 200 203 200 204 204 202 205 205 203 207 206 204
218 219 217 219 222 246 222 226 222 216 222 215 230 231 224 204 197 199 202 204 205 205 208 196 196 200 199 203 203 204 206 209 206 206 199 202 202 196 201 203 191 205 206
218 231 235 220 226 217 221 224 232 241 236 213 206 202 197 203 207 208 203 195 189 189 200 202 203 202 206 203 201 201 199 194 198 195 203 204 205 204 205 206 205 204 204
219 218 224 237 236 230 212 209 204 203 205 201 198 208 210 204 200 195 194 194 188 196 194 198 198 205 205 207 200 192 191 199 210 218 228 227 237 239 244 252 250 250 252
227 218 214 208 204 201 196 202 202 192 199 201 200 200 201 200 187 183 187 191 195 193 196 199 203 197 195 193 216 221 224 224 219 218 244 274 266 281 290 298 308 318 303
203 200 195 200 198 207 193 198 201 200 198 201 192 189 185 187 207 251 250 243 220 204 200 198 196 216 214 207 213 215 232 233 226 271 279 278 307 315 345 333 251 252 270
199 193 194 200 204 202 202 203 202 201 194 185 255 259 258 254 232 210 200 195 189 193 219 215 209 212 211 218 231 241 249 276 279 275 299 368 353 338 384 481 495 488 482
Wind_Speed
43 36 36 42 46 61 46 37 36 33 52 82 68 52 55 74 56 76 80 79 71 61 61 61 83 74 65 68 72 83 73 70 85 65 71 79 74 68 47 73 73 56 43
41 39 50 35 48 49 44 46 41 40 81 69 61 54 61 60 61 57 57 85 60 63 63 58 68 64 76 71 72 69 72 87 66 72 75 77 76 64 74 51 58 45 41
40 51 60 57 41 47 52 85 77 63 42 73 85 60 65 60 91 91 83 76 61 58 79 61 69 81 82 87 71 70 76 53 85 71 75 53 78 71 46 54 50 47 38
52 44 44 46 80 53 88 51 57 54 62 64 67 68 72 69 58 57 59 59 60 92 78 77 73 85 74 76 76 72 69 71 73 50 70 76 57 44 44 46 42 39 39
57 61 59 43 37 50 47 48 47 54 52 54 60 63 66 60 77 61 63 76 69 62 66 76 67 42 72 72 73 75 73 75 58 75 76 53 41 42 42 35 39 33 33
44 54 60 46 80 47 38 48 53 56 92 58 66 69 95 57 67 62 75 72 60 62 53 66 64 69 74 82 73 75 62 54 77 48 42 42 40 38 31 30 30 29 30
59 44 59 53 67 48 53 51 63 80 57 64 56 66 61 83 57 56 63 58 60 65 70 66 69 80 83 74 77 59 74 51 61 40 39 39 38 38 31 31 29 25 23
52 47 60 51 52 50 48 53 55 59 67 57 67 95 96 84 56 63 58 67 61 67 68 81 85 91 83 73 66 75 57 65 40 35 38 49 37 34 30 33 33 32 27
47 53 83 85 89 61 45 62 81 90 74 86 64 64 72 82 97 87 86 59 67 70 88 90 87 80 76 62 74 59 52 40 36 39 34 37 38 33 34 34 32 30 32
63 57 57 45 75 46 64 59 58 44 66 48 81 63 100 99 101 95 59 66 87 96 90 81 84 82 75 54 76 51 51 35 36 33 31 35 36 35 35 34 35 30 31
80 45 60 86 63 63 92 70 67 100 101 103 67 64 90 65 58 65 93 93 94 96 73 81 81 65 74 72 58 59 42 45 37 36 35 34 35 35 42 48 38 38 36
81 69 90 73 92 92 68 89 68 72 72 68 72 95 94 92 91 93 99 87 91 81 87 84 66 74 58 57 55 49 48 50 45 40 37 43 38 34 45 44 39 38 39
61 64 66 78 65 68 72 75 92 97 94 97 90 95 97 93 95 100 92 86 90 92 86 74 76 54 65 53 54 49 43 47 50 47 49 44 41 45 43 45 44 41 41
80 76 84 65 66 83 88 88 83 79 92 95 86 92 93 95 92 90 95 85 84 69 74 67 60 58 60 55 47 44 54 55 56 51 51 48 49 46 45 47 50 49 47
77 78 57 61 63 62 66 74 84 91 87 90 89 90 91 91 95 85 77 81 72 70 72 67 63 59 53 53 60 54 55 58 55 53 48 51 50 49 50 51 52 53 54
56 60 62 61 62 71 82 84 85 85 89 91 87 87 91 94 82 76 71 75 72 68 68 67 60 55 53 61 61 58 59 58 57 56 58 53 55 53 53 55 57 55 55
57 59 62 68 74 73 75 78 81 82 85 87 85 89 86 73 84 65 80 71 72 71 69 64 63 62 66 66 65 64 65 62 60 62 65 61 59 61 59 59 60 62 61
61 63 65 67 69 71 74 76 79 78 86 85 67 77 71 76 70 72 76 74 72 69 71 73 71 77 72 73 72 71 70 69 70 74 66 70 70 70 69 71 70 69 66
62 62 63 65 69 69 69 74 76 73 77 75 72 73 71 68 73 72 73 73 72 71 72 73 75 77 78 79 81 80 70 72 76 73 76 79 81 78 79 79 81 80 76
54 57 61 62 64 66 65 67 70 68 70 71 68 65 65 64 64 66 68 71 73 75 77 78 80 81 82 84 87 87 88 88 88 89 89 92 90 89 92 91 90 90 89
50 54 56 57 58 48 60 59 60 63 61 64 62 61 60 63 68 69 69 70 73 76 79 79 81 83 86 86 89 91 94 94 95 96 97 98 98 92 100 100 93 98 97
48 48 45 50 50 52 51 51 52 53 55 56 59 62 67 67 68 69 71 73 77 81 80 83 85 87 89 88 92 95 95 97 99 98 104 107 108 108 110 111 110 110 110
41 42 39 39 39 41 45 48 52 56 58 61 64 64 65 68 71 74 77 79 83 84 86 86 89 92 95 96 94 96 100 104 108 111 112 113 118 119 121 122 122 121 123
28 31 36 40 44 48 53 53 55 62 61 63 66 68 69 71 75 78 80 83 85 87 88 90 92 96 97 99 104 109 110 111 110 108 118 116 113 117 120 122 123 123 124
34 39 44 45 48 49 57 57 60 62 63 65 67 70 72 75 77 71 71 73 80 85 89 94 97 99 103 104 110 112 119 119 118 123 117 119 123 121 118 113 110 109 112
39 45 47 48 50 52 56 58 60 61 64 68 63 63 63 63 66 71 74 79 86 90 91 95 101 105 108 114 117 119 121 122 122 121 124 124 120 116 105 65 59 60 62
Wind_Direction
278 280 274 280 278 285 278 276 281 287 280 284 281 279 279 285 278 276 274 280 280 280 279 280 288 288 279 280 275 292 274 281 287 299 284 282 276 278 283 275 275 276 272
281 280 283 284 278 277 273 274 283 288 286 287 283 289 289 277 278 281 281 290 280 280 278 279 278 277 294 274 278 277 275 285 303 278 280 283 284 283 281 283 276 279 277
279 285 295 289 281 279 285 285 290 281 287 284 285 279 279 284 292 294 291 281 282 282 290 280 278 285 285 289 281 278 309 299 289 280 282 286 283 282 283 281 284 283 272
285 278 268 275 288 279 287 280 280 276 289 286 280 289 287 284 282 286 286 285 287 293 292 291 291 291 293 289 299 284 301 284 283 297 284 282 286 287 288 283 284 284 275
283 288 289 272 278 277 279 282 286 283 287 284 285 286 284 286 290 284 286 287 287 285 286 290 286 302 286 283 304 304 286 285 291 284 285 289 291 286 285 289 281 278 278
291 284 289 272 295 274 296 287 287 284 286 285 279 284 289 286 282 285 283 284 286 287 290 285 287 282 291 309 287 284 302 298 285 296 294 292 289 289 286 281 283 279 277
287 269 290 291 286 293 287 292 283 289 286 285 288 285 287 287 289 285 286 287 287 290 291 286 284 302 306 286 306 301 288 299 295 290 292 289 285 287 283 279 281 281 281
281 286 291 282 286 290 293 290 291 289 286 289 289 289 292 290 289 289 288 293 289 291 289 297 303 305 309 295 297 292 298 294 292 292 290 285 284 289 278 272 274 279 276
287 283 269 271 274 282 291 282 286 288 282 289 290 289 289 291 293 291 294 291 292 290 298 301 303 305 303 304 293 297 292 291 288 289 291 283 280 277 272 271 272 275 273
280 279 280 289 271 295 279 289 287 296 287 295 286 289 291 294 296 297 292 291 295 300 301 303 305 308 304 292 294 293 294 295 293 294 295 295 287 283 264 272 273 274 271
280 283 277 277 282 287 280 283 286 283 285 286 288 289 293 291 289 290 293 296 298 298 291 301 303 297 297 293 293 293 287 285 286 283 276 293 278 286 271 272 269 271 269
268 266 263 277 277 275 284 279 288 286 287 290 292 290 291 292 293 290 293 296 298 295 301 302 293 293 288 291 289 285 282 282 283 285 281 275 273 281 277 273 271 271 272
277 279 279 265 282 285 284 285 272 281 285 284 287 288 290 292 292 292 293 295 296 297 296 291 291 297 290 285 286 282 278 278 279 278 276 276 272 267 268 269 270 269 269
260 265 264 281 283 273 271 274 275 280 284 284 284 289 289 290 291 290 294 295 296 292 291 297 299 294 296 291 290 283 277 277 277 277 274 274 271 274 273 276 277 273 270
258 261 283 283 285 287 289 285 280 280 279 283 286 288 289 289 290 293 293 292 292 290 292 294 295 296 289 277 280 277 276 275 279 281 279 278 270 268 274 275 274 273 274
284 285 284 287 289 277 269 276 276 279 281 283 286 285 289 290 291 293 294 293 291 290 288 298 297 290 290 276 278 283 277 289 284 279 285 275 272 279 272 266 277 268 269
282 284 286 286 270 271 273 276 278 279 283 281 284 286 288 287 288 290 291 293 296 300 303 304 299 290 297 297 293 286 293 289 283 286 289 282 279 276 271 268 268 270 265
285 270 267 270 272 275 276 278 278 279 282 282 285 283 285 294 292 289 294 298 300 303 304 302 301 297 297 297 295 293 292 291 292 292 283 284 284 282 279 279 275 272 265
280 273 272 273 274 276 276 277 279 280 281 282 285 290 291 290 294 295 296 299 300 300 298 297 298 299 298 297 296 296 287 288 290 287 287 287 285 283 280 279 277 275 271
269 270 272 273 274 276 278 279 278 279 282 285 287 288 289 290 293 293 295 296 296 297 298 298 298 297 296 296 295 294 293 292 291 289 286 282 282 280 279 278 274 272 271
265 266 271 276 276 275 277 277 279 282 284 285 289 290 290 290 290 291 293 295 296 297 297 296 296 296 296 295 293 291 290 292 293 291 290 288 286 285 283 281 278 276 272
272 271 274 282 282 283 285 285 286 288 289 290 291 292 290 296 298 298 297 297 296 297 297 297 297 295 293 292 293 293 290 291 289 289 284 282 282 279 277 274 272 271 270
279 283 287 290 290 290 289 289 288 290 293 292 292 296 296 297 297 297 297 297 298 297 297 297 297 295 293 290 289 291 291 288 284 285 285 285 283 280 277 273 270 267 263
290 284 284 284 287 287 284 291 292 289 293 295 296 296 297 296 297 298 297 296 296 296 296 294 291 291 292 293 291 289 289 289 291 290 288 287 284 281 278 276 273 270 265
286 286 283 288 290 293 291 295 296 295 295 294 293 294 295 295 293 290 291 291 293 294 292 292 292 291 292 295 296 297 292 292 294 290 289 287 288 286 287 284 277 275 271
286 284 287 295 299 298 297 295 294 293 292 293 293 293 294 294 293 295 291 290 290 291 295 295 296 297 298 297 295 293 293 292 292 293 293 295 292 291 289 282 278 274 270